{"data":{"norad_id":66501,"intl_designator":"2025-263S","name":"STARLINK-35897","alt_names":[],"object_type":"PAYLOAD","status":"ACTIVE","operator":null,"country":"US","launch_date":"2025-11-15","launch_site_code":"AFETR","launch_vehicle":null,"mission":null,"orbit_class":"UNKNOWN","rcs_meters":null,"size_class":null,"mass_kg":null,"dimensions":null,"purposes":["comms"],"wikipedia_slug":null,"has_3d_model":false,"image_url":null,"decayed_at":null,"tle_current":{"epoch":"2026-05-25T02:16:42.034080Z","epoch_age_seconds":60878,"freshness":"FRESH","line1":"1 66501U 25263S   26145.09493095  .00010484  00000+0  38985-3 0  9995","line2":"2 66501  43.0021 279.2471 0003201 273.7837  86.2648 15.27588013 30585","mean_motion":15.27588013,"eccentricity":0.0003201,"inclination_deg":43.0021,"raan_deg":279.2471,"arg_perigee_deg":273.7837,"mean_anomaly_deg":86.2648,"bstar":0.00038985,"rev_number":3058,"period_min":94.266254235133,"perigee_km":480.82884435092,"apogee_km":485.22136032883,"semimajor_km":6861.1621023399,"source":"CELESTRAK","updated_at":"2026-05-25T13:38:21.245180Z"}}}